Regional Weather Roundup
Issued by NWS Wakefield, VA

Home | Current Version | Previous Version | Text Only | Print | Product List | Glossary On
Versions: 1 2 3 4 5 6 7 8 9 10 11 12 13 14 15 16 17 18 19 20 21 22 23 24 25 26 27 28 29 30 31 32 33 34 35 36 37 38 39 40 41 42 43 44 45 46 47 48 49 50
877
ASUS41 KAKQ 271214
RWRAKQ

REGIONAL WEATHER ROUNDUP
NATIONAL WEATHER SERVICE WAKEFIELD VA
800 AM EDT WED JUL 27 2016

Note: "fair" indicates few or no clouds below 12,000 feet with no
significant weather and/or obstructions to visibility. * = Denotes
station may not report precipitation (e.g., rain,snow,etc.),
thunder or fog.

VAZ042-051-052>054-056-271300-
NORTHERN VIRGINIA

CITY           SKY/WX    TMP DP  RH WIND       PRES   REMARKS
WASH NATIONAL  FAIR      83  72  69 N8        29.95S
DULLES         PTSUNNY   81  69  67 NW6       29.97R
FORT BELVOIR   FAIR      82  72  70 NW3       29.95R
QUANTICO       PTSUNNY   80  73  79 NW3       29.96R
FREDERICKSBRG* CLOUDY    77  77 100 CALM      29.95S
STAFFORD*      PTSUNNY   76  72  89 CALM      30.00S
WARRENTON      FAIR      79  70  74 CALM      29.97R
CULPEPER*      FAIR      78  75  89 N3        29.98R
MANASSAS*      NOT AVBL
LEESBURG*      FAIR      79  72  78 CALM      29.98S
WINCHESTER     FAIR      77  70  78 CALM      30.00S
FRONT ROYAL*   FAIR      73  72  94 CALM      30.00R
LURAY*         FOG      N/A N/A N/A CALM      30.01S VSB 3/4
$$

VAZ048-049-060>072-079>083-271300-
CENTRAL AND SOUTH CENTRAL VIRGINIA

CITY           SKY/WX    TMP DP  RH WIND       PRES   REMARKS
RICHMOND       FAIR      76  72  87 SW3       29.96R
CHESTERFIELD*  FAIR      75  63  64 W3        29.98R
PETERSBURG*    FAIR      78  78 100 CALM      29.98R
HANOVER        FAIR      77  72  84 W6        29.98R
TAPPAHANNOCK*  FAIR      76  76 100 CALM      29.96R
QUINTON*       FAIR      75  73  95 CALM      29.95R
CHARLOTTSVILLE FAIR      81  73  76 CALM      29.99R
GORDONSVILLE*  FAIR      77  74  88 MISG      29.97S
ORANGE*          N/A     79  77  94 CALM      29.99R
LOUISA*        FAIR      79  75  89 CALM      29.98R
BUMPASS*       CLOUDY    73  73 100 CALM      29.97S VSB 1/2
FARMVILLE*     FAIR     N/A N/A N/A SW3       29.98R
CREWE*         FAIR      75  75 100 CALM      29.98R
FORT PICKETT*  FAIR      75  74  98 CALM      29.98S
CHASE CITY*    CLOUDY    73  72  94 CALM      29.99S
CLARKSVILLE*   FAIR      73  73 100 CALM      29.99R
SOUTH HILL*    FAIR      75  74  99 CALM      30.04S
LAWRENCEVILLE* CLOUDY    74  74 100 CALM      29.98R
EMPORIA*       FAIR      73  73 100 SW3       29.99R
$$

VAZ088>098-271300-
SOUTHEAST VIRGINIA

CITY           SKY/WX    TMP DP  RH WIND       PRES   REMARKS
NORFOLK        PTSUNNY   82  76  81 VRB5      29.95R
VIRGINIA BEACH PTSUNNY   86  75  69 NW3       29.95R HX  95
NORFOLK NAVAL  FAIR      81  76  84 W8        29.97R
WEST POINT*    FAIR      77  75  93 CALM      29.97R
SALUDA*        FAIR      78  76  95 CALM      29.95R
NEWPORT NEWS   FAIR      80  76  87 CALM      29.95R
LANGLEY AFB    FAIR      80  77  91 VRB1      29.95S
FORT EUSTIS    FAIR      80  76  85 W5        29.94S
WILLIAMSBURG*  FAIR      77  75  94 CALM      29.97R
HR EXEC AP*    PTSUNNY   77  75  94 W3        29.98S
FRANKLIN*      CLOUDY    75  74  95 CALM      29.98R
US460-WAKEFLD  FAIR      77  74  90 SW5       29.96S FOG
$$

VAZ020-022-025-037-045-271300-
WEST CENTRAL AND SOUTHWEST VIRGINIA

CITY           SKY/WX    TMP DP  RH WIND       PRES   REMARKS
STAUNTON*      FOG       70  70 100 CALM      30.05S VSB<1/4
WAYNESBORO*    FAIR      74  71  89 CALM      30.05R
HOT SPRINGS VA FAIR      70  68  94 W9        30.16R
LYNCHBURG      CLOUDY    72  72 100 CALM      30.02S FOG
DANVILLE       FAIR      74  73  97 CALM      30.00S
SOUTH BOSTON*  PTSUNNY   74  72  95 CALM      29.99S
MARTINSVILLE   FAIR      73  71  93 CALM      30.05S
ROANOKE        FAIR      76  72  87 NE5       30.05R
BLACKSBURG     FAIR      73  71  93 CALM      30.13S
DUBLIN*        FAIR      74  74  99 CALM      30.11R
MARION*        FAIR      76  71  86 W7        30.16S
HILLSVILLE*    FAIR      71  71 100 CALM      30.12S FOG
RICHLANDS*     FAIR      74  72  94 CALM      30.15R
WISE*            N/A     73  70  88 CALM      30.16R
ABINGDON*      CLOUDY    74  72  94 CALM      30.12R
$$

MDZ021>025-VAZ099-100-271300-
SOUTHERN MARYLAND AND THE DELMARVA PENINSULA

CITY           SKY/WX    TMP DP  RH WIND       PRES   REMARKS
PATUXENT RIVER PTSUNNY   82  75  79 NW5       29.93S
BAY BRIDGE APT CLOUDY    82  72  69 N5        29.94R
LEONARDTOWN      N/A    N/A N/A N/A MISG        N/A
DOVER          PTSUNNY   82  82  99 E6        29.91F HX  95
GEORGETOWN     MOSUNNY   82  76  81 SW3       29.94S
EASTON         PTSUNNY   82  81  94 CALM      29.97  HX  95
CAMBRIDGE      PTSUNNY   79  77  94 CALM      29.94R
SALISBURY      HVY RAIN  77  74  90 N8        29.95R FOG
OCEAN CITY     LGT RAIN  80  78  94 CALM      29.95R
WALLOPS ISLAND FAIR      81  78  91 W5        29.94S
ACCOMACK*      FAIR      77  73  88 CALM      29.94S
$$

NCZ012>017-030>032-271300-
NORTH CENTRAL AND EASTERN NORTH CAROLINA

CITY           SKY/WX    TMP DP  RH WIND       PRES   REMARKS
ROANOKE RAPIDS FAIR      73  73 100 CALM      29.98S
RALEIGH        PTSUNNY   79  76  90 CALM      29.99R
ELIZABETH CITY PTSUNNY   80  75  84 W3        29.97R
AHOSKIE*       SUNNY     76  74  94 CALM      29.98R
EDENTON*       PTSUNNY   81  79  92 CALM      29.97S
CURRITUCK*     MOSUNNY   78  77  98 SW5       29.96S
KILL DEVIL HLS CLOUDY    84  77  81 CALM      29.96R
MANTEO           N/A     81  80  97 W3        29.97R
CAPE HATTERAS  CLOUDY    82  77  84 VRB7      29.98R
TARBORO*       FAIR      78  75  92 CALM      29.98S
GOLDSBORO      SUNNY     82  80  91 W8        29.96R
WASHINGTON     MOSUNNY   81  76  84 CALM      29.97R
GREENVILLE     PTSUNNY   81  77  89 W6        29.99R
NEW BERN       MOSUNNY   79  74  84 SW8       29.98S
WILMINGTON     SUNNY     82  75  79 SW12      29.99S
$$

VAZ048-271300-
ELSEWHERE

CITY           SKY/WX    TMP DP  RH WIND       PRES   REMARKS
HARRISBURG PA  MOSUNNY   77  65  66 VRB5      29.98R
BALTIMORE      MOSUNNY   79  67  66 VRB6      29.94S
ANNAPOLIS      CLOUDY    82  71  69 NW6       29.93S
ANDREWS AFB    FAIR      82  69  64 N7        29.95R
PHILADELPHIA   CLOUDY    79  65  62 NE5       29.95S
GREENSBORO     CLOUDY    79  75  87 CALM      30.01S
ROCKY MOUNT    SUNNY     81  78  91 CALM      29.97R
$$

VAZ100-271300-
MARINE

STATION/POSITION TIME  TEMP    WIND        PRES    WAVE   SWELL
                       AIR SEA DIR/SP/G            HT/PER HT/PER
                 (UTC) (F)     (DEG/KT/KT) (MB)    (FT/S) (FT/S)
BRANDYWINE LGT   1100   80     140/  4/  4   N/A
CAPE MAY NJ      1100   77 72   70/  4/  5 1013.1R
LEWES DE         1100   80 74     CALM     1013.3R
OCEAN-CITY-INLET 1100   74 71  250/  2/  2 1013.8R
WACHAPREAGUE VA  1100   77 86   10/  4/  5 1013.5R
THOMAS POINT MD  1200   81 84  340/  4/  5 1015.2R
GOOSES REEF MD   1100   82 85  320/  4/  6 1014.6S   1
COVE POINT MD    1100   81     330/  5/  7 1014.1R
SOLOMONS ISLAND  1100   80 86  320/  4/  5   N/A
BISHOPS HEAD MD  1100   81 86  340/  3/  4 1013.9R
PINEY POINT MD   1100           CALM  /  2   N/A
POTOMAC MD       1100   81 86  340/  4/  4 1012.6R   1/ 2
CAMBRIDGE MD     1100   80 87   90/  1/  1 1012.7F
LEWISETTA VA     1100   77 87  290/  2/  3 1013.3S
RAPPAHANNOCK LGT 1100           10/  9/ 10 1014.1R
STINGRAY PT      1100   81 85  260/  6/  6 1014.0R   0
YORK RVR RNG VA  1100   80     350/  8/  9 1013.3R
YORKTOWN VA      1100   78 84  300/  5/  7 1013.4R
JAMESTOWN VA     1100   78 89  340/  2/  4   N/A     0
DOMINION TERM VA 1100   78     280/  7/  8 1014.0R
KIPTOPEKE VA     1100      80  350/  6/  8   N/A
CHES BAY BRIDGE  1100   80 79  280/  7/  8 1013.8R
CAPE HENRY VA    1100   79     290/  6/  7   N/A
WILLOUBY STN VA  1100   80     320/  4/  4   N/A
CAPE HENRY BUOY  1112      70                N/A     1/ 6
1ST LANDING BUOY 1100   80 79  300/  8/  8 1013.6R
CAPE CHARLES BUO 1126      74                N/A     1/ 6
OFFSHORE WE BUOY 1121      81                N/A     2/ 6
64NM E OF VA BCH 1150   80 79   50/  4/  4 1013.9R   3/ 6   2/ 6
DUCK PIER NC     1100   80 64  250/  3/  5 1013.5R
44100 DUCK FRF   1105      77                N/A     2/ 6
44056 DUCK FRF   1111      67                N/A     1/ 6
OREGON INLET NC  1100   81 85  280/  5/  7 1014.4R
HATTERAS NC      1100   81 83  220/  5/  8 1014.3R
DIAMOND SHLS NC  1150   84 84  250/ 14/ 16 1015.0R   4/ 6   2/14
CAPE LOOKOUT NC  1200   83     250/ 15/ 17 1015.0R
$$




USA.gov is the U.S. government's official web portal to all federal, state and local government web resources and services.